TimeEST,TemperatureF,Dew PointF,Humidity,Sea Level PressureIn,VisibilityMPH,Wind Direction,Wind SpeedMPH,Gust SpeedMPH,PrecipitationIn,Events,Conditions,WindDirDegrees,DateUTC
12:54 AM,55.4,53.6,94,29.96,10.0,Calm,Calm,-,N/A,,Overcast,0,2011-11-16 05:54:00
1:54 AM,55.9,53.1,90,29.96,8.0,Calm,Calm,-,0.00,Rain,Light Rain,0,2011-11-16 06:54:00
2:54 AM,55.0,54.0,96,29.97,5.0,WSW,3.5,-,0.09,Rain,Light Rain,240,2011-11-16 07:54:00
3:54 AM,55.0,54.0,96,29.96,6.0,Calm,Calm,-,0.01,,Overcast,0,2011-11-16 08:54:00
4:54 AM,55.0,54.0,96,29.92,6.0,East,3.5,-,0.00,,Overcast,90,2011-11-16 09:54:00
5:45 AM,55.4,53.6,94,29.92,7.0,Calm,Calm,-,N/A,,Overcast,0,2011-11-16 10:45:00
5:54 AM,55.0,54.0,96,29.92,7.0,Calm,Calm,-,N/A,,Overcast,0,2011-11-16 10:54:00
6:40 AM,55.4,53.6,94,29.92,6.0,Calm,Calm,-,N/A,,Overcast,0,2011-11-16 11:40:00
6:54 AM,55.0,54.0,96,29.93,6.0,Calm,Calm,-,N/A,,Overcast,0,2011-11-16 11:54:00
7:54 AM,55.0,54.0,96,29.95,5.0,Calm,Calm,-,N/A,,Overcast,0,2011-11-16 12:54:00
8:54 AM,55.9,54.0,93,29.92,6.0,ESE,5.8,-,0.01,Rain,Light Rain,120,2011-11-16 13:54:00
9:14 AM,57.2,53.6,88,29.92,9.0,East,6.9,-,0.00,,Overcast,100,2011-11-16 14:14:00
9:54 AM,57.0,54.0,89,29.89,6.0,East,4.6,-,0.00,,Overcast,90,2011-11-16 14:54:00
10:54 AM,57.2,53.6,88,29.88,5.0,ENE,5.8,-,N/A,Rain,Light Rain,70,2011-11-16 15:54:00
11:26 AM,57.2,55.4,94,29.84,3.0,East,4.6,-,0.02,Rain,Rain,80,2011-11-16 16:26:00
11:54 AM,57.0,55.9,96,29.83,4.0,East,4.6,-,0.03,Rain,Rain,90,2011-11-16 16:54:00
12:03 PM,57.2,55.4,94,29.83,3.0,Calm,Calm,-,0.02,Rain,Rain,0,2011-11-16 17:03:00
12:15 PM,57.2,55.4,94,29.82,2.0,NE,3.5,-,0.08,Rain,Heavy Rain,50,2011-11-16 17:15:00
12:54 PM,57.0,55.9,96,29.78,2.5,ENE,5.8,-,0.16,Rain,Rain,70,2011-11-16 17:54:00
1:03 PM,57.2,55.4,94,29.78,3.0,ENE,4.6,-,0.01,Rain,Light Rain,60,2011-11-16 18:03:00
1:31 PM,55.4,55.4,100,29.77,2.5,East,4.6,-,0.03,Rain,Light Rain,100,2011-11-16 18:31:00
1:54 PM,55.9,55.0,97,29.75,3.0,East,5.8,-,0.04,Rain,Light Rain,100,2011-11-16 18:54:00
2:05 PM,55.4,55.4,100,29.74,4.0,East,4.6,-,0.00,Rain,Light Rain,100,2011-11-16 19:05:00
2:54 PM,57.0,55.9,96,29.73,4.0,East,4.6,-,0.03,Rain,Light Rain,80,2011-11-16 19:54:00
3:54 PM,57.0,55.9,96,29.71,4.0,ENE,4.6,-,0.05,Rain,Light Rain,70,2011-11-16 20:54:00
4:54 PM,57.0,57.0,100,29.72,3.0,Calm,Calm,-,0.04,Rain,Rain,0,2011-11-16 21:54:00
5:22 PM,57.2,55.4,94,29.73,4.0,NNW,5.8,-,0.01,Rain,Light Rain,330,2011-11-16 22:22:00
5:50 PM,55.4,55.4,100,29.74,9.0,NNW,6.9,-,0.01,,Overcast,340,2011-11-16 22:50:00
5:54 PM,55.9,55.0,97,29.74,10.0,NNW,6.9,-,0.01,,Overcast,330,2011-11-16 22:54:00
6:02 PM,55.4,55.4,100,29.75,10.0,NNW,8.1,-,N/A,,Overcast,340,2011-11-16 23:02:00
6:54 PM,55.9,54.0,93,29.78,10.0,NNW,9.2,-,0.01,,Overcast,340,2011-11-16 23:54:00
7:10 PM,55.4,53.6,94,29.78,10.0,NNW,5.8,-,0.00,Rain,Light Rain,330,2011-11-17 00:10:00
7:41 PM,55.4,53.6,94,29.78,10.0,NNW,10.4,-,0.00,Rain,Light Rain,340,2011-11-17 00:41:00
7:54 PM,55.9,54.0,93,29.79,10.0,NNW,8.1,-,0.01,Rain,Light Rain,340,2011-11-17 00:54:00
8:10 PM,55.4,55.4,100,29.79,6.0,NNW,4.6,-,N/A,Rain,Rain,330,2011-11-17 01:10:00
8:28 PM,55.4,55.4,100,29.79,9.0,North,6.9,-,0.04,Rain,Light Rain,350,2011-11-17 01:28:00
8:54 PM,55.9,54.0,93,29.79,10.0,North,6.9,-,0.04,Rain,Light Rain,360,2011-11-17 01:54:00
9:54 PM,55.0,53.1,93,29.78,10.0,North,8.1,-,0.01,Rain,Light Rain,360,2011-11-17 02:54:00
10:54 PM,53.6,51.8,94,29.81,10.0,WNW,5.8,-,N/A,Rain,Light Rain,300,2011-11-17 03:54:00
11:54 PM,53.1,50.0,89,29.81,10.0,NNW,8.1,-,0.01,,Overcast,340,2011-11-17 04:54:00